KJ7NO-2 Weather Reports


time (UTC)temp
C
wind
direction
speed
KPH
gust
KPH
rain 1hr
cm
rain 24hr
cm
rain mn
cm
humidity
%
barometer
mb
20260508213635 24 27 3.2 17.7 0.00 0.00 0.00 22 1015.9
20260508213140 24 27 6.4 19.3 0.00 0.00 0.00 22 1016.0
20260508212624 24 27 12.9 20.9 0.00 0.00 0.00 21 1015.9
20260508212128 23 27 3.2 16.1 0.00 0.00 0.00 22 1016.0
20260508211632 23 27 12.9 16.1 0.00 0.00 0.00 22 1016.1
20260508211137 23 27 4.8 16.1 0.00 0.00 0.00 22 1016.1
20260508210621 23 27 6.4 20.9 0.00 0.00 0.00 22 1016.1
20260508210126 23 27 14.5 20.9 0.00 0.00 0.00 22 1016.1
20260508205630 23 27 14.5 20.9 0.00 0.00 0.00 22 1016.3
20260508205154 23 27 8.0 25.7 0.00 0.00 0.00 21 1016.3
20260508204638 23 27 14.5 25.7 0.00 0.00 0.00 21 1016.4
20260508204126 23 27 14.5 24.1 0.00 0.00 0.00 21 1016.3
20260508203630 23 27 6.4 19.3 0.00 0.00 0.00 24 1016.4
20260508203135 22 27 8.0 22.5 0.00 0.00 0.00 24 1016.5
20260508202639 23 27 9.7 22.5 0.00 0.00 0.00 24 1016.5
20260508202123 23 27 8.0 24.1 0.00 0.00 0.00 23 1016.5
20260508201628 22 27 8.0 24.1 0.00 0.00 0.00 23 1016.5
20260508201132 23 27 9.7 27.4 0.00 0.00 0.00 22 1016.6
20260508200636 23 27 14.5 27.4 0.00 0.00 0.00 23 1016.6
20260508200121 23 27 12.9 25.7 0.00 0.00 0.00 24 1016.6
20260508195625 22 27 4.8 25.7 0.00 0.00 0.00 23 1016.6
20260508195130 22 27 9.7 19.3 0.00 0.00 0.00 24 1016.6
20260508194638 22 27 11.3 19.3 0.00 0.00 0.00 23 1016.5
20260508194122 22 27 6.4 17.7 0.00 0.00 0.00 23 1016.6
20260508193627 22 27 11.3 24.1 0.00 0.00 0.00 24 1016.7
20260508193131 22 27 9.7 24.1 0.00 0.00 0.00 24 1016.7
20260508192635 22 27 8.0 24.1 0.00 0.00 0.00 26 1016.8
20260508192120 22 27 9.7 25.7 0.00 0.00 0.00 25 1016.8
20260508191624 22 27 16.1 25.7 0.00 0.00 0.00 25 1016.8
20260508191129 22 27 8.0 20.9 0.00 0.00 0.00 26 1016.8
20260508190633 22 27 12.9 20.9 0.00 0.00 0.00 25 1016.9
20260508190138 22 27 9.7 19.3 0.00 0.00 0.00 24 1016.9
20260508185625 22 27 9.7 20.9 0.00 0.00 0.00 26 1017.0
20260508185130 21 27 11.3 20.9 0.00 0.00 0.00 25 1017.1
20260508184634 22 27 12.9 19.3 0.00 0.00 0.00 27 1017.1
20260508184159 22 27 8.0 20.9 0.00 0.00 0.00 26 1017.1
20260508183622 22 27 11.3 20.9 0.00 0.00 0.00 27 1017.2
20260508183126 22 27 9.7 17.7 0.00 0.00 0.00 29 1017.1
20260508182630 22 27 9.7 16.1 0.00 0.00 0.00 31 1017.1
20260508182135 22 27 8.0 14.5 0.00 0.00 0.00 31 1017.1
20260508181639 22 27 6.4 14.5 0.00 0.00 0.00 30 1017.2
20260508181124 22 27 6.4 20.9 0.00 0.00 0.00 31 1017.2
20260508180628 22 27 8.0 20.9 0.00 0.00 0.00 31 1017.3
20260508180133 22 27 9.7 16.1 0.00 0.00 0.00 29 1017.3
20260508175620 22 27 11.3 16.1 0.00 0.00 0.00 30 1017.3
20260508175125 22 27 6.4 16.1 0.00 0.00 0.00 30 1017.3
20260508174629 22 27 9.7 16.1 0.00 0.00 0.00 30 1017.4
20260508174134 22 27 6.4 17.7 0.00 0.00 0.00 32 1017.4
20260508173638 22 27 11.3 17.7 0.00 0.00 0.00 31 1017.3
20260508173122 22 27 6.4 17.7 0.00 0.00 0.00 31 1017.5
20260508172626 22 27 6.4 14.5 0.00 0.00 0.00 32 1017.5
20260508172151 22 27 4.8 12.9 0.00 0.00 0.00 33 1017.3
20260508171654 21 27 4.8 14.5 0.00 0.00 0.00 33 1017.3
20260508171158 22 27 9.7 14.5 0.00 0.00 0.00 33 1017.4
20260508170621 22 27 1.6 9.7 0.00 0.00 0.00 31 1017.4
20260508170125 22 27 6.4 11.3 0.00 0.00 0.00 31 1017.3
20260508165629 22 27 4.8 8.0 0.00 0.00 0.00 31 1017.3
20260508165138 21 27 4.8 8.0 0.00 0.00 0.00 32 1017.3
20260508164642 21 27 3.2 6.4 0.00 0.00 0.00 32 1017.3
20260508164125 21 27 4.8 12.9 0.00 0.00 0.00 34 1017.2
20260508163630 21 27 4.8 12.9 0.00 0.00 0.00 35 1017.2
20260508163134 21 27 4.8 8.0 0.00 0.00 0.00 35 1017.2
20260508162638 20 27 4.8 8.0 0.00 0.00 0.00 35 1017.2
20260508162122 20 27 4.8 8.0 0.00 0.00 0.00 36 1017.2
20260508161627 20 27 1.6 6.4 0.00 0.00 0.00 37 1017.3
20260508161130 20 27 1.6 8.0 0.00 0.00 0.00 36 1017.3
20260508160636 19 27 4.8 8.0 0.00 0.00 0.00 38 1017.3
20260508160139 19 27 1.6 8.0 0.00 0.00 0.00 39 1017.3
20260508155628 19 27 3.2 9.7 0.00 0.00 0.00 39 1017.3
20260508155132 19 27 4.8 9.7 0.00 0.00 0.00 39 1017.3
20260508154637 18 27 4.8 8.0 0.00 0.00 0.00 39 1017.3
20260508154120 18 27 3.2 6.4 0.00 0.00 0.00 40 1017.2
20260508153626 18 27 3.2 8.0 0.00 0.00 0.00 41 1017.1
20260508153129 18 27 3.2 8.0 0.00 0.00 0.00 41 1017.2
20260508152654 18 27 4.8 8.0 0.00 0.00 0.00 42 1017.2
20260508152137 18 27 1.6 8.0 0.00 0.00 0.00 42 1017.2
20260508151622 18 27 4.8 8.0 0.00 0.00 0.00 42 1017.2
20260508151126 17 27 1.6 6.4 0.00 0.00 0.00 43 1017.0
20260508150631 17 27 3.2 6.4 0.00 0.00 0.00 44 1017.0
20260508150154 17 27 4.8 6.4 0.00 0.00 0.00 44 1017.0
20260508145659 17 27 3.2 4.8 0.00 0.00 0.00 44 1016.9
20260508145125 17 27 1.6 3.2 0.00 0.00 0.00 44 1016.8
20260508144630 16 27 1.6 4.8 0.00 0.00 0.00 46 1016.8
20260508144134 16 27 0.0 4.8 0.00 0.00 0.00 46 1016.7
20260508143639 16 27 1.6 4.8 0.00 0.00 0.00 46 1016.8
20260508143122 16 27 1.6 3.2 0.00 0.00 0.00 47 1016.7
20260508142627 15 27 1.6 3.2 0.00 0.00 0.00 47 1016.6
20260508142131 15 27 1.6 3.2 0.00 0.00 0.00 49 1016.7
20260508141636 14 27 1.6 3.2 0.00 0.00 0.00 50 1016.7
20260508141200 14 27 0.0 1.6 0.00 0.00 0.00 50 1016.6
20260508140624 13 27 0.0 3.2 0.00 0.00 0.00 50 1016.5
20260508140128 13 27 1.6 4.8 0.00 0.00 0.00 51 1016.5
20260508135633 13 27 3.2 4.8 0.00 0.00 0.00 53 1016.6
20260508135120 12 27 0.0 4.8 0.00 0.00 0.00 52 1016.4
20260508134625 12 27 1.6 3.2 0.00 0.00 0.00 52 1016.4
20260508134129 12 27 0.0 1.6 0.00 0.00 0.00 54 1016.3
20260508133634 12 27 0.0 3.2 0.00 0.00 0.00 53 1016.3
20260508133158 12 27 1.6 3.2 0.00 0.00 0.00 54 1016.2
20260508132622 12 27 0.0 3.2 0.00 0.00 0.00 53 1016.2
20260508132125 12 27 1.6 3.2 0.00 0.00 0.00 53 1016.2
20260508131631 12 27 0.0 3.2 0.00 0.00 0.00 53 1016.1
20260508131135 12 27 1.6 3.2 0.00 0.00 0.00 54 1016.1
20260508130700 12 27 0.0 3.2 0.00 0.00 0.00 53 1016.0
20260508130137 12 27 1.6 3.2 0.00 0.00 0.00 53 1015.9
20260508125621 12 27 0.0 1.6 0.00 0.00 0.00 53 1015.9
20260508125130 12 27 0.0 3.2 0.00 0.00 0.00 53 1015.8
20260508124634 12 27 1.6 3.2 0.00 0.00 0.00 53 1015.8
20260508124139 12 27 0.0 3.2 0.00 0.00 0.00 53 1015.8
20260508123642 12 27 1.6 4.8 0.00 0.00 0.00 54 1015.7
20260508123126 12 27 1.6 4.8 0.00 0.00 0.00 55 1015.7
20260508122630 12 27 3.2 4.8 0.00 0.00 0.00 56 1015.5
20260508122155 12 27 1.6 4.8 0.00 0.00 0.00 57 1015.5
20260508121638 12 27 1.6 3.2 0.00 0.00 0.00 58 1015.5
20260508121142 12 27 1.6 6.4 0.00 0.00 0.00 57 1015.5
20260508120625 12 27 4.8 6.4 0.00 0.00 0.00 57 1015.3
20260508120130 12 27 3.2 4.8 0.00 0.00 0.00 57 1015.4
20260508115634 12 27 3.2 6.4 0.00 0.00 0.00 57 1015.2
20260508115138 12 27 0.0 8.0 0.00 0.00 0.00 55 1015.2
20260508114627 12 27 4.8 8.0 0.00 0.00 0.00 55 1015.1
20260508114130 12 27 1.6 6.4 0.00 0.00 0.00 54 1015.2
20260508113635 12 27 1.6 3.2 0.00 0.00 0.00 54 1015.1
20260508113138 12 27 0.0 3.2 0.00 0.00 0.00 54 1015.1
20260508112623 12 27 0.0 4.8 0.00 0.00 0.00 54 1015.0
20260508112147 12 27 1.6 8.0 0.00 0.00 0.00 55 1015.0
20260508111630 12 27 1.6 8.0 0.00 0.00 0.00 56 1015.0
20260508111134 12 27 0.0 4.8 0.00 0.00 0.00 55 1015.0
20260508110639 12 27 1.6 8.0 0.00 0.00 0.00 55 1015.0
20260508110122 12 27 3.2 8.0 0.00 0.00 0.00 55 1015.1
20260508105647 12 27 3.2 6.4 0.00 0.00 0.00 55 1015.0
20260508105130 12 27 3.2 4.8 0.00 0.00 0.00 55 1015.0
20260508104635 12 27 1.6 6.4 0.00 0.00 0.00 55 1014.9
20260508104143 12 27 3.2 6.4 0.00 0.00 0.00 55 1014.9
20260508103626 12 27 3.2 4.8 0.00 0.00 0.00 55 1015.0
20260508103129 12 27 3.2 4.8 0.00 0.00 0.00 55 1015.0
20260508102634 12 27 3.2 6.4 0.00 0.00 0.00 55 1015.0
20260508102138 12 27 3.2 6.4 0.00 0.00 0.00 54 1015.0
20260508101623 12 27 4.8 6.4 0.00 0.00 0.00 53 1015.0
20260508101127 12 27 1.6 4.8 0.00 0.00 0.00 54 1015.0
20260508100632 12 27 3.2 4.8 0.00 0.00 0.00 55 1015.0
20260508100136 12 27 1.6 4.8 0.00 0.00 0.00 54 1014.9
20260508095700 12 27 1.6 4.8 0.00 0.00 0.00 55 1014.9
20260508095123 12 27 3.2 4.8 0.00 0.00 0.00 55 1014.9
20260508094628 12 27 3.2 6.4 0.00 0.00 0.00 56 1014.9
20260508094136 12 27 3.2 6.4 0.00 0.00 0.00 56 1015.0
20260508093620 12 27 3.2 4.8 0.00 0.00 0.00 55 1015.0
20260508093124 12 27 3.2 4.8 0.00 0.00 0.00 55 1014.9
20260508092629 12 27 1.6 8.0 0.00 0.00 0.00 55 1014.8
20260508092153 12 27 1.6 9.7 0.00 0.00 0.00 54 1014.8
20260508091637 13 27 4.8 9.7 0.00 0.00 0.00 54 1014.7
20260508091121 13 27 0.0 4.8 0.00 0.00 0.00 53 1014.6
20260508090626 13 27 1.6 4.8 0.00 0.00 0.00 53 1014.6
20260508090130 13 27 3.2 4.8 0.00 0.00 0.00 53 1014.6
20260508085634 13 27 0.0 1.6 0.00 0.00 0.00 53 1014.5
20260508085138 13 27 0.0 1.6 0.00 0.00 0.00 54 1014.6
20260508084643 13 27 0.0 4.8 0.00 0.00 0.00 54 1014.6
20260508084130 13 27 1.6 4.8 0.00 0.00 0.00 53 1014.6
20260508083635 13 27 1.6 3.2 0.00 0.00 0.00 54 1014.7
20260508083139 13 27 1.6 4.8 0.00 0.00 0.00 54 1014.6
20260508082623 13 27 3.2 6.4 0.00 0.00 0.00 53 1014.7
20260508082127 13 27 1.6 6.4 0.00 0.00 0.00 53 1014.8
20260508081632 13 27 0.0 4.8 0.00 0.00 0.00 53 1014.6
20260508081136 13 27 1.6 3.2 0.00 0.00 0.00 53 1014.6
20260508080621 13 27 1.6 4.8 0.00 0.00 0.00 54 1014.6
20260508080125 14 27 1.6 4.8 0.00 0.00 0.00 53 1014.6
20260508075630 14 27 3.2 6.4 0.00 0.00 0.00 53 1014.6
20260508075134 14 27 3.2 6.4 0.00 0.00 0.00 52 1014.8
20260508074642 14 27 3.2 6.4 0.00 0.00 0.00 51 1014.8
20260508074125 15 27 4.8 6.4 0.00 0.00 0.00 51 1014.6
20260508073630 15 27 3.2 4.8 0.00 0.00 0.00 51 1014.7
20260508073134 14 27 3.2 4.8 0.00 0.00 0.00 52 1014.7
20260508072639 14 27 3.2 4.8 0.00 0.00 0.00 50 1014.6
20260508072122 15 27 3.2 4.8 0.00 0.00 0.00 50 1014.6
20260508071628 15 27 3.2 4.8 0.00 0.00 0.00 50 1014.6
20260508071131 15 27 1.6 4.8 0.00 0.00 0.00 50 1014.7
20260508070635 15 27 1.6 3.2 0.00 0.00 0.00 48 1014.6
20260508070159 15 27 1.6 3.2 0.00 0.00 0.00 48 1014.6
20260508065623 15 27 0.0 1.6 0.00 0.00 0.00 48 1014.6
20260508065127 15 27 0.0 3.2 0.00 0.00 0.00 48 1014.5
20260508064636 15 27 1.6 3.2 0.00 0.00 0.00 48 1014.5
20260508064140 15 27 0.0 3.2 0.00 0.00 0.00 48 1014.4
20260508063624 15 27 0.0 3.2 0.00 0.00 0.00 48 1014.3
20260508063149 15 27 1.6 3.2 0.00 0.00 0.00 49 1014.3
20260508062632 15 27 1.6 3.2 0.00 0.00 0.00 48 1014.3
20260508062156 15 27 1.6 4.8 0.00 0.00 0.00 49 1014.3
20260508061620 15 27 3.2 6.4 0.00 0.00 0.00 48 1014.3
20260508061123 16 27 4.8 6.4 0.00 0.00 0.00 47 1014.4
20260508060628 16 27 3.2 6.4 0.00 0.00 0.00 45 1014.4
20260508060132 16 27 0.0 1.6 0.00 0.00 0.00 44 1014.3
20260508055638 16 27 0.0 4.8 0.00 0.00 0.00 43 1014.2
20260508055141 16 27 3.2 9.7 0.00 0.00 0.00 42 1014.2
20260508054625 16 27 6.4 9.7 0.00 0.00 0.00 42 1014.2
20260508054133 17 27 3.2 6.4 0.00 0.00 0.00 43 1014.1
20260508053638 17 27 1.6 4.8 0.00 0.00 0.00 41 1013.9
20260508053121 17 27 1.6 6.4 0.00 0.00 0.00 39 1014.0
20260508052626 17 27 3.2 6.4 0.00 0.00 0.00 38 1014.0
20260508052130 17 27 3.2 6.4 0.00 0.00 0.00 37 1014.0
20260508051635 18 27 3.2 6.4 0.00 0.00 0.00 38 1013.9
20260508051139 18 27 4.8 6.4 0.00 0.00 0.00 37 1013.9
20260508050624 18 27 0.0 4.8 0.00 0.00 0.00 35 1013.9
20260508050127 18 27 1.6 4.8 0.00 0.00 0.00 35 1013.8
20260508045633 18 27 1.6 3.2 0.00 0.00 0.00 34 1013.8
20260508045120 18 27 0.0 1.6 0.00 0.00 0.00 35 1013.8
20260508044625 18 27 0.0 6.4 0.00 0.00 0.00 35 1013.8
20260508044149 18 27 3.2 6.4 0.00 0.00 0.00 34 1013.8
20260508043633 18 27 4.8 8.0 0.00 0.00 0.00 34 1013.8
20260508043137 19 27 6.4 8.0 0.00 0.00 0.00 34 1013.8
20260508042621 19 27 4.8 6.4 0.00 0.00 0.00 34 1013.8
20260508042125 19 27 1.6 4.8 0.00 0.00 0.00 33 1013.8
20260508041630 19 27 3.2 6.4 0.00 0.00 0.00 33 1013.8
20260508041134 19 27 3.2 6.4 0.00 0.00 0.00 33 1013.7
20260508040639 19 27 3.2 6.4 0.00 0.00 0.00 34 1013.8
20260508040143 19 27 3.2 8.0 0.00 0.00 0.00 34 1013.7
20260508035627 19 27 4.8 8.0 0.00 0.00 0.00 33 1013.8
20260508035131 19 27 3.2 9.7 0.00 0.00 0.00 34 1013.7
20260508034640 19 27 6.4 9.7 0.00 0.00 0.00 34 1013.6
20260508034123 19 27 4.8 8.0 0.00 0.00 0.00 34 1013.5
20260508033648 19 27 3.2 4.8 0.00 0.00 0.00 34 1013.5
20260508033151 19 27 1.6 4.8 0.00 0.00 0.00 35 1013.4
20260508032655 20 27 1.6 4.8 0.00 0.00 0.00 34 1013.5
20260508032138 20 27 3.2 6.4 0.00 0.00 0.00 35 1013.4
20260508031642 20 27 3.2 8.0 0.00 0.00 0.00 34 1013.4
20260508031146 20 27 4.8 6.4 0.00 0.00 0.00 33 1013.3
20260508030649 20 27 3.2 4.8 0.00 0.00 0.00 34 1013.3
20260508030152 20 27 3.2 4.8 0.00 0.00 0.00 34 1013.2
20260508025636 21 27 3.2 4.8 0.00 0.00 0.00 33 1013.2
20260508025120 21 27 3.2 4.8 0.00 0.00 0.00 33 1013.2
20260508024645 21 27 3.2 4.8 0.00 0.00 0.00 32 1013.1
20260508024127 21 27 1.6 4.8 0.00 0.00 0.00 30 1013.2
20260508023652 21 27 1.6 6.4 0.00 0.00 0.00 29 1013.2
20260508023134 21 27 4.8 6.4 0.00 0.00 0.00 29 1013.2
20260508022640 21 27 3.2 6.4 0.00 0.00 0.00 29 1013.1
20260508022123 21 27 4.8 8.0 0.00 0.00 0.00 28 1013.0
20260508021632 22 27 4.8 8.0 0.00 0.00 0.00 29 1013.0
20260508021156 22 27 4.8 6.4 0.00 0.00 0.00 28 1013.0
20260508020640 22 27 1.6 6.4 0.00 0.00 0.00 28 1013.0
20260508020123 22 27 4.8 6.4 0.00 0.00 0.00 27 1013.0
20260508015628 23 27 1.6 4.8 0.00 0.00 0.00 26 1013.0
20260508015133 23 27 0.0 8.0 0.00 0.00 0.00 27 1013.0
20260508014637 23 27 1.6 8.0 0.00 0.00 0.00 27 1013.0
20260508014141 23 27 4.8 9.7 0.00 0.00 0.00 26 1013.0
20260508013625 23 27 4.8 9.7 0.00 0.00 0.00 26 1013.0
20260508013129 23 27 3.2 9.7 0.00 0.00 0.00 25 1013.0
20260508012634 23 27 3.2 9.7 0.00 0.00 0.00 25 1013.0
20260508012158 23 27 4.8 12.9 0.00 0.00 0.00 25 1013.1
20260508011621 23 27 8.0 12.9 0.00 0.00 0.00 25 1013.0
20260508011129 23 27 4.8 6.4 0.00 0.00 0.00 25 1013.1
20260508010634 23 27 4.8 8.0 0.00 0.00 0.00 25 1013.1
20260508010138 24 27 3.2 8.0 0.00 0.00 0.00 25 1013.1
20260508005622 23 27 4.8 8.0 0.00 0.00 0.00 25 1013.1
20260508005127 23 27 0.0 9.7 0.00 0.00 0.00 25 1013.2
20260508004631 23 27 3.2 9.7 0.00 0.00 0.00 25 1013.1
20260508004135 24 27 3.2 9.7 0.00 0.00 0.00 24 1013.1
20260508003620 24 27 6.4 16.1 0.00 0.00 0.00 25 1013.0
20260508003124 23 27 8.0 16.1 0.00 0.00 0.00 25 1013.0
20260508002629 24 27 3.2 8.0 0.00 0.00 0.00 25 1013.1
20260508002133 23 27 0.0 12.9 0.00 0.00 0.00 24 1013.3
20260508001641 23 27 4.8 12.9 0.00 0.00 0.00 24 1013.3
20260508001124 24 27 4.8 8.0 0.00 0.00 0.00 24 1013.4
20260508000629 24 27 4.8 8.0 0.00 0.00 0.00 24 1013.5
20260508000133 24 27 0.0 6.4 0.00 0.00 0.00 25 1013.5
20260507235638 24 27 3.2 6.4 0.00 0.00 0.00 24 1013.5
20260507235142 25 27 1.6 6.4 0.00 0.00 0.00 24 1013.6
20260507234625 24 27 3.2 6.4 0.00 0.00 0.00 25 1013.6
20260507234130 24 27 3.2 6.4 0.00 0.00 0.00 25 1013.9
20260507233634 23 27 4.8 12.9 0.00 0.00 0.00 25 1013.9
20260507233138 23 27 8.0 12.9 0.00 0.00 0.00 25 1013.9
20260507232643 23 27 6.4 11.3 0.00 0.00 0.00 26 1014.0
20260507232126 23 27 4.8 14.5 0.00 0.00 0.00 25 1014.0
20260507231631 23 27 6.4 14.5 0.00 0.00 0.00 25 1014.1
20260507231139 23 27 4.8 11.3 0.00 0.00 0.00 25 1014.1
20260507230643 23 27 1.6 9.7 0.00 0.00 0.00 25 1014.2
20260507230126 23 27 6.4 11.3 0.00 0.00 0.00 26 1014.3
20260507225652 23 27 6.4 14.5 0.00 0.00 0.00 26 1014.4
20260507225154 23 27 4.8 14.5 0.00 0.00 0.00 26 1014.4
20260507224638 23 27 8.0 12.9 0.00 0.00 0.00 26 1014.6
20260507224122 22 27 3.2 9.7 0.00 0.00 0.00 26 1014.7
20260507223626 22 27 4.8 9.7 0.00 0.00 0.00 26 1014.7
20260507223130 22 27 3.2 12.9 0.00 0.00 0.00 26 1014.8
20260507222635 22 27 4.8 16.1 0.00 0.00 0.00 26 1014.9
20260507222138 22 27 9.7 16.1 0.00 0.00 0.00 27 1015.0
20260507221623 22 27 11.3 19.3 0.00 0.00 0.00 26 1015.0
20260507221127 22 27 14.5 20.9 0.00 0.00 0.00 26 1015.0
20260507220636 22 27 14.5 20.9 0.00 0.00 0.00 26 1015.1
20260507220140 22 27 14.5 19.3 0.00 0.00 0.00 27 1015.1
20260507215625 22 27 9.7 16.1 0.00 0.00 0.00 26 1015.1
20260507215128 22 27 8.0 17.7 0.00 0.00 0.00 25 1015.1
20260507214633 22 27 11.3 24.1 0.00 0.00 0.00 26 1015.2
20260507214137 23 27 12.9 24.1 0.00 0.00 0.00 25 1015.2